Time,TemperatureF,DewpointF,PressureIn,WindDirection,WindDirectionDegrees,WindSpeedMPH,WindSpeedGustMPH,Humidity,HourlyPrecipIn,Conditions,Clouds,dailyrainin,SoftwareType,DateUTC
2013-06-29 00:25:00,81.0,77.0,-100.00,SW,223,9.0,-999.0,88,0.00,,,-99.99,,2013-06-29 04:25:00,
2013-06-29 00:32:00,81.0,77.0,-100.00,SW,223,9.0,-999.0,88,0.00,,,-99.99,,2013-06-29 04:32:00,
2013-06-29 00:41:00,81.0,77.0,-100.00,SW,223,9.0,-999.0,88,0.00,,,-99.99,,2013-06-29 04:41:00,
2013-06-29 01:21:00,81.0,75.0,-100.00,SW,220,11.0,-999.0,82,0.00,,,-99.99,,2013-06-29 05:21:00,
2013-06-29 01:31:00,81.0,75.0,-100.00,SW,220,11.0,-999.0,82,0.00,,,-99.99,,2013-06-29 05:31:00,
2013-06-29 01:41:00,81.0,75.0,-100.00,SW,220,11.0,-999.0,82,0.00,,,-99.99,,2013-06-29 05:41:00,
2013-06-29 02:22:00,80.0,73.0,-100.00,SW,230,12.0,-999.0,78,0.00,,,-99.99,,2013-06-29 06:22:00,
2013-06-29 02:34:00,80.0,73.0,-100.00,SW,230,12.0,-999.0,78,0.00,,,-99.99,,2013-06-29 06:34:00,
2013-06-29 02:43:00,80.0,73.0,-100.00,SW,230,12.0,-999.0,78,0.00,,,-99.99,,2013-06-29 06:43:00,
2013-06-29 03:22:00,79.0,75.0,-100.00,SW,233,14.0,-999.0,86,0.00,,,-99.99,,2013-06-29 07:22:00,
2013-06-29 03:33:00,79.0,75.0,-100.00,SW,233,14.0,-999.0,86,0.00,,,-99.99,,2013-06-29 07:33:00,
2013-06-29 03:43:00,79.0,75.0,-100.00,SW,233,14.0,-999.0,86,0.00,,,-99.99,,2013-06-29 07:43:00,
2013-06-29 04:22:00,79.0,74.0,-100.00,SW,231,13.0,-999.0,87,0.00,,,-99.99,,2013-06-29 08:22:00,
2013-06-29 04:33:00,79.0,74.0,-100.00,SW,231,13.0,-999.0,87,0.00,,,-99.99,,2013-06-29 08:33:00,
2013-06-29 04:43:00,79.0,74.0,-100.00,SW,231,13.0,-999.0,87,0.00,,,-99.99,,2013-06-29 08:43:00,
2013-06-29 05:22:00,78.0,73.0,-100.00,WSW,238,12.0,-999.0,86,0.00,,,-99.99,,2013-06-29 09:22:00,
2013-06-29 05:33:00,78.0,73.0,-100.00,WSW,238,12.0,-999.0,86,0.00,,,-99.99,,2013-06-29 09:33:00,
2013-06-29 05:42:00,78.0,73.0,-100.00,WSW,238,12.0,-999.0,86,0.00,,,-99.99,,2013-06-29 09:42:00,
2013-06-29 06:22:00,77.0,72.0,-100.00,SW,234,10.0,-999.0,85,0.00,,,-99.99,,2013-06-29 10:22:00,
2013-06-29 06:33:00,77.0,72.0,-100.00,SW,234,10.0,-999.0,85,0.00,,,-99.99,,2013-06-29 10:33:00,
2013-06-29 06:43:00,77.0,72.0,-100.00,SW,234,10.0,-999.0,85,0.00,,,-99.99,,2013-06-29 10:43:00,
2013-06-29 07:23:00,77.0,71.0,-100.00,WSW,237,14.0,-999.0,83,0.00,,,-99.99,,2013-06-29 11:23:00,
2013-06-29 07:33:00,77.0,71.0,-100.00,WSW,237,14.0,-999.0,83,0.00,,,-99.99,,2013-06-29 11:33:00,
2013-06-29 07:43:00,77.0,71.0,-100.00,WSW,237,14.0,-999.0,83,0.00,,,-99.99,,2013-06-29 11:43:00,
2013-06-29 08:22:00,77.0,70.0,-100.00,West,259,16.0,-999.0,80,0.00,,,-99.99,,2013-06-29 12:22:00,
2013-06-29 08:34:00,77.0,70.0,-100.00,West,259,16.0,-999.0,80,0.00,,,-99.99,,2013-06-29 12:34:00,
2013-06-29 08:43:00,77.0,70.0,-100.00,West,259,16.0,-999.0,80,0.00,,,-99.99,,2013-06-29 12:43:00,
2013-06-29 09:23:00,74.0,70.0,-100.00,West,260,8.0,-999.0,90,0.01,,,-99.99,,2013-06-29 13:23:00,
2013-06-29 09:34:00,74.0,70.0,-100.00,West,260,8.0,-999.0,90,0.01,,,-99.99,,2013-06-29 13:34:00,
2013-06-29 09:43:00,74.0,70.0,-100.00,West,260,8.0,-999.0,90,0.01,,,-99.99,,2013-06-29 13:43:00,
2013-06-29 10:23:00,77.0,71.0,-100.00,West,262,9.0,-999.0,81,0.00,,,-99.99,,2013-06-29 14:23:00,
2013-06-29 10:34:00,77.0,71.0,-100.00,West,262,9.0,-999.0,81,0.00,,,-99.99,,2013-06-29 14:34:00,
2013-06-29 10:44:00,77.0,71.0,-100.00,West,262,9.0,-999.0,81,0.00,,,-99.99,,2013-06-29 14:44:00,
2013-06-29 11:22:00,80.0,71.0,-100.00,SW,236,11.0,-999.0,75,0.00,,,-99.99,,2013-06-29 15:22:00,
2013-06-29 11:33:00,80.0,71.0,-100.00,SW,236,11.0,-999.0,75,0.00,,,-99.99,,2013-06-29 15:33:00,
2013-06-29 11:42:00,80.0,71.0,-100.00,SW,236,11.0,-999.0,75,0.00,,,-99.99,,2013-06-29 15:42:00,
2013-06-29 12:23:00,80.0,71.0,-100.00,SW,227,11.0,-999.0,74,0.00,,,-99.99,,2013-06-29 16:23:00,
2013-06-29 12:33:00,80.0,71.0,-100.00,SW,227,11.0,-999.0,74,0.00,,,-99.99,,2013-06-29 16:33:00,
2013-06-29 12:43:00,80.0,71.0,-100.00,SW,227,11.0,-999.0,74,0.00,,,-99.99,,2013-06-29 16:43:00,
2013-06-29 13:23:00,83.0,72.0,-100.00,SW,223,11.0,-999.0,71,0.00,,,-99.99,,2013-06-29 17:23:00,
2013-06-29 13:34:00,83.0,72.0,-100.00,SW,223,11.0,-999.0,71,0.00,,,-99.99,,2013-06-29 17:34:00,
2013-06-29 13:42:00,83.0,72.0,-100.00,SW,223,11.0,-999.0,71,0.00,,,-99.99,,2013-06-29 17:42:00,
2013-06-29 14:22:00,84.0,74.0,-100.00,SSW,209,15.0,-999.0,73,0.00,,,-99.99,,2013-06-29 18:22:00,
2013-06-29 14:34:00,84.0,74.0,-100.00,SSW,209,15.0,-999.0,73,0.00,,,-99.99,,2013-06-29 18:34:00,
2013-06-29 14:43:00,84.0,74.0,-100.00,SSW,209,15.0,-999.0,73,0.00,,,-99.99,,2013-06-29 18:43:00,
2013-06-29 15:22:00,83.0,74.0,-100.00,SSW,203,15.0,-999.0,74,0.00,,,-99.99,,2013-06-29 19:22:00,
2013-06-29 15:34:00,83.0,74.0,-100.00,SSW,203,15.0,-999.0,74,0.00,,,-99.99,,2013-06-29 19:34:00,
2013-06-29 15:43:00,83.0,74.0,-100.00,SSW,203,15.0,-999.0,74,0.00,,,-99.99,,2013-06-29 19:43:00,
2013-06-29 16:23:00,83.0,76.0,-100.00,SSW,204,19.0,-999.0,78,0.00,,,-99.99,,2013-06-29 20:23:00,
2013-06-29 16:33:00,83.0,76.0,-100.00,SSW,204,19.0,-999.0,78,0.00,,,-99.99,,2013-06-29 20:33:00,
2013-06-29 16:43:00,83.0,76.0,-100.00,SSW,204,19.0,-999.0,78,0.00,,,-99.99,,2013-06-29 20:43:00,
2013-06-29 17:22:00,83.0,76.0,-100.00,SSW,213,16.0,-999.0,78,0.00,,,-99.99,,2013-06-29 21:22:00,
2013-06-29 17:32:00,83.0,76.0,-100.00,SSW,213,16.0,-999.0,78,0.00,,,-99.99,,2013-06-29 21:32:00,
2013-06-29 17:42:00,83.0,76.0,-100.00,SSW,213,16.0,-999.0,78,0.00,,,-99.99,,2013-06-29 21:42:00,
2013-06-29 18:22:00,81.0,75.0,-100.00,SW,234,10.0,-999.0,80,0.00,,,-99.99,,2013-06-29 22:22:00,
2013-06-29 18:33:00,81.0,75.0,-100.00,SW,234,10.0,-999.0,80,0.00,,,-99.99,,2013-06-29 22:33:00,
2013-06-29 18:43:00,81.0,75.0,-100.00,SW,234,10.0,-999.0,80,0.00,,,-99.99,,2013-06-29 22:43:00,
2013-06-29 19:23:00,76.0,73.0,-100.00,West,262,1.0,-999.0,88,0.35,,,-99.99,,2013-06-29 23:23:00,
2013-06-29 19:34:00,76.0,73.0,-100.00,West,262,1.0,-999.0,88,0.35,,,-99.99,,2013-06-29 23:34:00,
2013-06-29 19:43:00,76.0,73.0,-100.00,West,262,1.0,-999.0,88,0.35,,,-99.99,,2013-06-29 23:43:00,
2013-06-29 20:22:00,81.0,76.0,-100.00,SSW,213,15.0,-999.0,87,0.00,,,-99.99,,2013-06-30 00:22:00,
2013-06-29 20:33:00,81.0,76.0,-100.00,SSW,213,15.0,-999.0,87,0.00,,,-99.99,,2013-06-30 00:33:00,
2013-06-29 20:43:00,81.0,76.0,-100.00,SSW,213,15.0,-999.0,87,0.00,,,-99.99,,2013-06-30 00:43:00,
2013-06-29 21:22:00,80.0,77.0,-100.00,SW,215,11.0,-999.0,90,0.00,,,-99.99,,2013-06-30 01:22:00,
2013-06-29 21:33:00,80.0,77.0,-100.00,SW,215,11.0,-999.0,90,0.00,,,-99.99,,2013-06-30 01:33:00,
2013-06-29 21:44:00,80.0,77.0,-100.00,SW,215,11.0,-999.0,90,0.00,,,-99.99,,2013-06-30 01:44:00,
2013-06-29 22:24:00,77.0,74.0,-100.00,SW,232,12.0,-999.0,89,0.02,,,-99.99,,2013-06-30 02:24:00,
2013-06-29 22:34:00,77.0,74.0,-100.00,SW,232,12.0,-999.0,89,0.02,,,-99.99,,2013-06-30 02:34:00,
2013-06-29 22:43:00,77.0,74.0,-100.00,SW,232,12.0,-999.0,89,0.02,,,-99.99,,2013-06-30 02:43:00,
2013-06-29 23:23:00,78.0,76.0,-100.00,SSW,212,9.0,-999.0,93,0.00,,,-99.99,,2013-06-30 03:23:00,
2013-06-29 23:34:00,78.0,76.0,-100.00,SSW,212,9.0,-999.0,93,0.00,,,-99.99,,2013-06-30 03:34:00,
2013-06-29 23:43:00,78.0,76.0,-100.00,SSW,212,9.0,-999.0,93,0.00,,,-99.99,,2013-06-30 03:43:00,